Charleston, WV

7:45 PM EST on December 10, 2016 (GMT -0500)
Yeager Airport

Weather History for KCRW - November, 2011

Change the Weather History Date:

Sunday, November 13, 2011

  Actual Average Record
Temperature  
Mean Temperature 60 °F 48 °F  
Max Temperature 68 °F 58 °F 86 °F (1931)
Min Temperature 51 °F 38 °F 16 °F (1911)
Degree Days  
Heating Degree Days 5 17  
Month to date heating degree days 190 198  
Since 1 July heating degree days 532 538  
Cooling Degree Days 0 0  
Month to date cooling degree days 0 0  
Year to date cooling degree days 1367 1094  
Growing Degree Days 10 (Base 50)    
Moisture  
Dew Point 33 °F    
Average Humidity 36    
Maximum Humidity 46    
Minimum Humidity 25    
Precipitation  
Precipitation 0.00 in 0.13 in 1.07 in (1993)
Month to date precipitation 0.25 1.55  
Year to date precipitation 42.72 38.58  
Snow  
Snow 0.00 in - - ()
Month to date snowfall T  
Since 1 September snowfall T  
Snow Depth 0.00 in    
Sea Level Pressure  
Sea Level Pressure 29.96 in    
Wind  
Wind Speed 11 mph (South)    
Max Wind Speed 25 mph    
Max Gust Speed 36 mph    
Visibility 10 miles    
Events      
T = Trace of Precipitation, MM = Missing Value Source: NWS Daily Summary

Daily Weather History Graph

Daily Weather History Graph

Search for Another Location

Airport or City:

Trip Planner

Search our weather history database for the weather conditions in past years. The results will help you decide how hot, cold, wet, or windy it might be!

Date:

Astronomy

Nov. 13, 2011 Rise Set
Actual Time 7:05 AM EST 5:15 PM EST
Civil Twilight 6:37 AM EST 5:43 PM EST
Nautical Twilight 6:05 AM EST 6:15 PM EST
Astronomical Twilight 5:34 AM EST 6:46 PM EST
Moon 7:24 PM EST (11/13) 9:35 AM EST (11/13)
Length of Visible Light 11h 06m
Length of Day
10h 10m
Waning Gibbous, 93% of the Moon is Illuminated
Nov 13
Waning Gibbous
Nov 18
Last Quarter
Nov 25
New
Dec 2
First Quarter
Dec 10
Full

Hourly Weather History & Observations

Time (EST) Temp. Dew Point Humidity Pressure Visibility Wind Dir Wind Speed Gust Speed Precip Events Conditions
12:54 AM 53.1 °F 23.0 °F 31% 30.03 in 10.0 mi SE 3.5 mph - N/A   Clear
1:54 AM 54.0 °F 23.0 °F 30% 30.03 in 10.0 mi South 4.6 mph - N/A   Clear
2:54 AM 53.6 °F 24.8 °F 33% 30.04 in 10.0 mi South 3.5 mph - N/A   Clear
3:54 AM 55.0 °F 23.0 °F 29% 30.02 in 10.0 mi South 8.1 mph - N/A   Clear
4:54 AM 57.0 °F 23.0 °F 27% 30.02 in 10.0 mi South 9.2 mph - N/A   Clear
5:54 AM 55.9 °F 23.0 °F 28% 30.03 in 10.0 mi South 8.1 mph - N/A   Clear
6:54 AM 57.0 °F 23.0 °F 27% 30.02 in 10.0 mi South 9.2 mph - N/A   Partly Cloudy
7:54 AM 57.9 °F 24.1 °F 27% 30.02 in 10.0 mi South 10.4 mph - N/A   Scattered Clouds
8:54 AM 61.0 °F 30.9 °F 32% 30.02 in 10.0 mi SSW 10.4 mph 16.1 mph N/A   Mostly Cloudy
9:54 AM 62.1 °F 34.0 °F 35% 30.01 in 10.0 mi SSW 10.4 mph 19.6 mph N/A   Overcast
10:54 AM 63.0 °F 36.0 °F 37% 29.99 in 10.0 mi SSW 10.4 mph 25.3 mph N/A   Overcast
11:54 AM 63.0 °F 36.0 °F 37% 29.96 in 10.0 mi SSW 13.8 mph 25.3 mph N/A   Overcast
12:54 PM 64.0 °F 36.0 °F 35% 29.94 in 10.0 mi South 12.7 mph 25.3 mph N/A   Overcast
1:54 PM 64.9 °F 37.9 °F 37% 29.90 in 10.0 mi South 17.3 mph 26.5 mph N/A   Mostly Cloudy
2:54 PM 66.9 °F 39.0 °F 36% 29.88 in 10.0 mi South 19.6 mph 25.3 mph N/A   Scattered Clouds
3:54 PM 66.9 °F 39.0 °F 36% 29.88 in 10.0 mi South 18.4 mph 25.3 mph N/A   Scattered Clouds
4:54 PM 64.4 °F 39.2 °F 40% 29.88 in 10.0 mi South 16.1 mph 23.0 mph N/A   Partly Cloudy
5:54 PM 64.0 °F 39.0 °F 40% 29.89 in 10.0 mi SSW 11.5 mph - N/A   Partly Cloudy
6:54 PM 63.0 °F 39.9 °F 43% 29.91 in 10.0 mi SSW 9.2 mph - N/A   Partly Cloudy
7:54 PM 64.0 °F 39.9 °F 41% 29.89 in 10.0 mi South 15.0 mph 26.5 mph N/A   Partly Cloudy
8:54 PM 64.9 °F 41.0 °F 42% 29.89 in 10.0 mi SSW 17.3 mph 26.5 mph N/A   Clear
9:54 PM 64.0 °F 41.0 °F 43% 29.90 in 10.0 mi South 15.0 mph 23.0 mph N/A   Clear
10:54 PM 63.0 °F 41.0 °F 45% 29.90 in 10.0 mi South 9.2 mph - N/A   Clear
11:54 PM 63.0 °F 41.0 °F 45% 29.91 in 10.0 mi South 9.2 mph - N/A   Clear